Weather History for YWLM - May, 2013

Change the Weather History Date:

Saturday, May 18, 2013

  Actual Average Record
Temperature  
Mean Temperature 56 °F -  
Max Temperature 66 °F - - ()
Min Temperature 46 °F - - ()
Degree Days  
Heating Degree Days 9    
Growing Degree Days 6 (Base 50)    
Moisture  
Dew Point 38 °F    
Average Humidity 52    
Maximum Humidity 71    
Minimum Humidity 23    
Precipitation  
Precipitation 0.00 in - - ()
Sea Level Pressure  
Sea Level Pressure 29.95 in    
Wind  
Wind Speed 11 mph ()    
Max Wind Speed 20 mph    
Max Gust Speed -    
Visibility 6.2 miles    
Events      
T = Trace of Precipitation, MM = Missing Value Source: Averaged Metar Reports

Daily Weather History Graph

Daily Weather History Graph

Search for Another Location

Airport or City:

Trip Planner

Search our weather history database for the weather conditions in past years. The results will help you decide how hot, cold, wet, or windy it might be!

Date:

Astronomy

May. 18, 2013 Rise Set
Actual Time 6:37 AM AEST 5:00 PM AEST
Civil Twilight 6:11 AM AEST 5:26 PM AEST
Nautical Twilight 5:41 AM AEST 5:56 PM AEST
Astronomical Twilight 5:11 AM AEST 6:26 PM AEST
Moon 12:16 PM AEST (5/18) No Moon Set
Length of Visible Light 11h 15m
Length of Day
10h 22m
Waxing Crescent, 49% of the Moon is Illuminated
May 18
Waxing Crescent
May 18
First Quarter
May 25
Full
Jun 1
Last Quarter
Jun 9
New

Hourly Weather History & Observations

Time (AEST) Temp. Dew Point Humidity Pressure Visibility Wind Dir Wind Speed Gust Speed Precip Events Conditions
12:00 AM 51 °F 37 °F 48% 29.96 in - WNW 10.4 mph - -  
12:00 AM 50.0 °F 37.4 °F 62% 29.95 in 6.2 mi WNW 10.4 mph - N/A   Unknown
12:30 AM 50.0 °F 37.4 °F 62% 29.95 in 6.2 mi WNW 12.7 mph - N/A   Unknown
1:00 AM 51 °F 37 °F 48% 29.95 in - WNW 11.5 mph - -  
1:00 AM 50.0 °F 37.4 °F 62% 29.95 in 6.2 mi WNW 11.5 mph - N/A   Unknown
1:30 AM 51.8 °F 37.4 °F 58% 29.95 in 6.2 mi WNW 15.0 mph - N/A   Unknown
2:00 AM 50.0 °F 37.4 °F 62% 29.95 in 6.2 mi WNW 12.7 mph - N/A   Unknown
2:30 AM 50.0 °F 37.4 °F 62% 29.92 in 6.2 mi WNW 12.7 mph - N/A   Unknown
3:00 AM 49 °F 38 °F 55% 29.94 in - WNW 11.5 mph - -  
3:00 AM 50.0 °F 37.4 °F 62% 29.92 in 6.2 mi WNW 11.5 mph - N/A   Unknown
3:30 AM 50.0 °F 37.4 °F 62% 29.92 in 6.2 mi WNW 11.5 mph - N/A   Unknown
4:00 AM 49 °F 38 °F 55% 29.94 in - WNW 11.5 mph - -  
4:00 AM 50.0 °F 37.4 °F 62% 29.92 in 6.2 mi WNW 11.5 mph - N/A   Unknown
4:30 AM 48.2 °F 37.4 °F 66% 29.92 in 6.2 mi WNW 11.5 mph - N/A   Unknown
5:00 AM 48.2 °F 37.4 °F 66% 29.95 in 6.2 mi West 10.4 mph - N/A   Unknown
5:30 AM 48.2 °F 39.2 °F 71% 29.95 in 6.2 mi WNW 10.4 mph - N/A   Unknown
6:00 AM 47 °F 38 °F 63% 29.96 in - WNW 9.2 mph - -  
6:00 AM 48.2 °F 39.2 °F 71% 29.95 in 6.2 mi WNW 9.2 mph - N/A   Unknown
6:30 AM 48.2 °F 39.2 °F 71% 29.95 in 6.2 mi WNW 12.7 mph - N/A   Unknown
7:00 AM 48 °F 39 °F 63% 29.97 in - WNW 10.4 mph - -  
7:00 AM 48.2 °F 39.2 °F 71% 29.95 in 6.2 mi WNW 10.4 mph - N/A   Unknown
7:30 AM 50.0 °F 41.0 °F 71% 29.98 in 6.2 mi WNW 8.1 mph - N/A   Unknown
8:00 AM 53.6 °F 41.0 °F 62% 29.98 in 6.2 mi WNW 12.7 mph - N/A   Unknown
8:30 AM 55.4 °F 41.0 °F 58% 29.98 in 6.2 mi WNW 15.0 mph - N/A   Unknown
9:00 AM 58 °F 41 °F 42% 29.99 in - WNW 17.3 mph - -  
9:00 AM 59.0 °F 41.0 °F 51% 29.98 in 6.2 mi WNW 17.3 mph - N/A   Unknown
9:30 AM 59.0 °F 39.2 °F 48% 29.98 in 6.2 mi WNW 19.6 mph - N/A   Unknown
10:00 AM 60 °F 38 °F 32% 29.99 in - WNW 17.3 mph - -  
10:00 AM 60.8 °F 37.4 °F 42% 29.98 in 6.2 mi WNW 17.3 mph - N/A   Unknown
10:30 AM 62.6 °F 39.2 °F 42% 29.98 in 6.2 mi WNW 18.4 mph - N/A   Unknown
11:00 AM 62.6 °F 39.2 °F 42% 29.95 in 6.2 mi West 16.1 mph - N/A   Unknown
11:30 AM 64.4 °F 39.2 °F 40% 29.95 in 6.2 mi West 13.8 mph - N/A   Unknown
12:00 PM 64 °F 38 °F 26% 29.94 in - WNW 15.0 mph - -  
12:00 PM 64.4 °F 37.4 °F 37% 29.92 in 6.2 mi WNW 15.0 mph - N/A   Unknown
12:30 PM 64.4 °F 37.4 °F 37% 29.92 in 6.2 mi West 12.7 mph - N/A   Unknown
1:00 PM 64 °F 36 °F 23% 29.91 in - West 10.4 mph - -  
1:00 PM 64.4 °F 35.6 °F 34% 29.89 in 6.2 mi West 10.4 mph - N/A   Scattered Clouds
1:30 PM 66.2 °F 35.6 °F 32% 29.89 in 6.2 mi West 13.8 mph - N/A   Unknown
2:00 PM 66.2 °F 35.6 °F 32% 29.89 in 6.2 mi West 11.5 mph - N/A   Scattered Clouds
2:30 PM 66.2 °F 33.8 °F 30% 29.89 in 6.2 mi WSW 12.7 mph - N/A   Scattered Clouds
3:00 PM 64 °F 38 °F 26% 29.90 in - WNW 8.1 mph - -  
3:00 PM 64.4 °F 37.4 °F 37% 29.89 in 6.2 mi WNW 8.1 mph - N/A   Scattered Clouds
3:30 PM 64.4 °F 41.0 °F 42% 29.89 in 6.2 mi West 6.9 mph - N/A   Scattered Clouds
4:00 PM 64 °F 40 °F 29% 29.90 in - WNW 5.8 mph - -  
4:00 PM 64.4 °F 39.2 °F 40% 29.89 in 6.2 mi WNW 5.8 mph - N/A   Unknown
4:30 PM 60.8 °F 42.8 °F 52% 29.89 in 6.2 mi NW 5.8 mph - N/A   Scattered Clouds
5:00 PM 57.2 °F 42.8 °F 59% 29.89 in 6.2 mi West 5.8 mph - N/A   Unknown
5:30 PM 55.4 °F 39.2 °F 54% 29.92 in 6.2 mi West 6.9 mph - N/A   Unknown
6:00 PM 55 °F 40 °F 45% 29.94 in - WNW 5.8 mph - -  
6:00 PM 55.4 °F 39.2 °F 54% 29.92 in 6.2 mi WNW 5.8 mph - N/A   Scattered Clouds
6:30 PM 53.6 °F 39.2 °F 58% 29.95 in 6.2 mi WNW 6.9 mph - N/A   Unknown
7:00 PM 50 °F 40 °F 60% 29.96 in - West 8.1 mph - -  
7:00 PM 50.0 °F 41.0 °F 71% 29.95 in 6.2 mi West 8.1 mph - N/A   Mostly Cloudy
7:30 PM 55.4 °F 37.4 °F 51% 29.95 in 6.2 mi WNW 10.4 mph - N/A   Mostly Cloudy
8:00 PM 51.8 °F 39.2 °F 62% 29.98 in 6.2 mi WNW 10.4 mph - N/A   Unknown
8:30 PM 51.8 °F 37.4 °F 58% 29.98 in 6.2 mi WNW 10.4 mph - N/A   Unknown
9:00 PM 52 °F 37 °F 44% 30.00 in - WNW 10.4 mph - -  
9:00 PM 51.8 °F 37.4 °F 58% 29.98 in 6.2 mi WNW 10.4 mph - N/A   Unknown
9:30 PM 51.8 °F 37.4 °F 58% 30.01 in 6.2 mi West 9.2 mph - N/A   Unknown
10:00 PM 51 °F 36 °F 46% 30.00 in - WNW 11.5 mph - -  
10:00 PM 51.8 °F 37.4 °F 58% 29.98 in 6.2 mi WNW 11.5 mph - N/A   Unknown
10:30 PM 50.0 °F 37.4 °F 62% 29.98 in 6.2 mi WNW 12.7 mph - N/A   Unknown
11:00 PM 50.0 °F 37.4 °F 62% 29.98 in 6.2 mi WNW 12.7 mph - N/A   Unknown
11:30 PM 50.0 °F 37.4 °F 62% 29.98 in 6.2 mi WNW 10.4 mph - N/A   Unknown